GTRVA EGHF-EGHN

Flight info

Callsign GTRVA
Flight time 0h -10m
Altitude 1500
Route DCT
Aircraft C208/L-G/C

Departure

Time 2026-04-20 13:33
Airport Solent Airport (EGHF)

Arrival

Time 2026-04-20 13:22
Airport Isle of Wight/Sandown Airport (EGHN)
Time Latitude Longitude Altitude Speed Heading
2026-04-20 13:22 50.81825 -1.19649 41 ft 0 kts 225°
2026-04-20 13:30 50.81827 -1.19717 41 ft 12 kts 262°
2026-04-20 13:30 50.81818 -1.19779 40 ft 0 kts 248°
2026-04-20 13:31 50.81836 -1.19810 40 ft 10 kts 347°
2026-04-20 13:31 50.81921 -1.19861 37 ft 13 kts 300°
2026-04-20 13:31 50.81942 -1.20011 32 ft 15 kts 280°
2026-04-20 13:32 50.81884 -1.20160 32 ft 25 kts 227°
2026-04-20 13:32 50.81654 -1.20526 35 ft 72 kts 225°
2026-04-20 13:32 50.81220 -1.21234 123 ft 100 kts 221°
2026-04-20 13:32 50.80718 -1.22007 399 ft 102 kts 218°
2026-04-20 13:33 50.80182 -1.22790 579 ft 115 kts 217°
2026-04-20 13:33 50.79504 -1.23676 574 ft 134 kts 213°
2026-04-20 13:33 50.78750 -1.24562 718 ft 133 kts 212°
2026-04-20 13:33 50.77994 -1.25402 888 ft 131 kts 209°
2026-04-20 13:34 50.77196 -1.26201 904 ft 142 kts 206°
2026-04-20 13:34 50.76316 -1.26961 872 ft 146 kts 202°
2026-04-20 13:34 50.75401 -1.27661 884 ft 146 kts 200°
2026-04-20 13:34 50.74438 -1.27910 1010 ft 138 kts 180°
2026-04-20 13:35 50.73504 -1.28059 1120 ft 132 kts 179°
2026-04-20 13:35 50.72595 -1.28207 1263 ft 131 kts 180°
2026-04-20 13:35 50.71701 -1.28610 1399 ft 137 kts 195°
2026-04-20 13:35 50.70799 -1.29188 1463 ft 143 kts 199°
2026-04-20 13:36 50.69877 -1.29848 1486 ft 148 kts 199°
2026-04-20 13:36 50.68922 -1.30512 1488 ft 152 kts 199°
2026-04-20 13:36 50.67958 -1.31207 1493 ft 153 kts 199°
2026-04-20 13:36 50.66986 -1.31923 1490 ft 155 kts 201°
2026-04-20 13:37 50.66087 -1.32899 1498 ft 159 kts 215°
2026-04-20 13:37 50.65237 -1.34014 1491 ft 158 kts 216°
2026-04-20 13:37 50.64405 -1.35152 1490 ft 159 kts 218°
2026-04-20 13:37 50.63580 -1.36289 1481 ft 157 kts 218°
2026-04-20 13:38 50.62677 -1.37157 1486 ft 150 kts 184°
2026-04-20 13:38 50.61665 -1.37040 1500 ft 144 kts 165°
2026-04-20 13:38 50.60861 -1.36342 1478 ft 128 kts 131°
2026-04-20 13:38 50.60177 -1.35462 1479 ft 126 kts 137°
2026-04-20 13:39 50.59483 -1.34641 1483 ft 124 kts 137°
2026-04-20 13:39 50.58793 -1.33840 1486 ft 122 kts 136°
2026-04-20 13:39 50.58138 -1.32992 1489 ft 121 kts 134°
2026-04-20 13:39 50.57505 -1.32143 1492 ft 121 kts 133°
2026-04-20 13:40 50.56989 -1.31137 1490 ft 115 kts 98°
2026-04-20 13:40 50.57244 -1.30018 1510 ft 115 kts 57°
2026-04-20 13:40 50.57734 -1.29005 1512 ft 118 kts 54°
2026-04-20 13:40 50.58240 -1.27979 1492 ft 118 kts 67°
2026-04-20 13:41 50.58414 -1.26719 1495 ft 119 kts 82°
2026-04-20 13:41 50.58480 -1.25423 1500 ft 119 kts 86°
2026-04-20 13:41 50.58525 -1.24116 1496 ft 120 kts 87°
2026-04-20 13:41 50.58554 -1.22798 1489 ft 121 kts 88°
2026-04-20 13:42 50.58568 -1.21483 1485 ft 120 kts 88°
2026-04-20 13:42 50.58575 -1.18876 1491 ft 119 kts 89°
2026-04-20 13:42 50.58631 -1.17582 1489 ft 120 kts 72°
2026-04-20 13:43 50.59279 -1.16787 1498 ft 128 kts 18°
2026-04-20 13:43 50.60174 -1.16587 1497 ft 133 kts
2026-04-20 13:43 50.61116 -1.16563 1314 ft 135 kts
2026-04-20 13:43 50.62057 -1.16585 1141 ft 135 kts
2026-04-20 13:44 50.62987 -1.16609 1058 ft 132 kts
2026-04-20 13:44 50.63893 -1.16664 1023 ft 128 kts
2026-04-20 13:44 50.64756 -1.16960 1026 ft 133 kts 334°
2026-04-20 13:44 50.65537 -1.17736 1022 ft 133 kts 330°
2026-04-20 13:45 50.66039 -1.18930 1004 ft 138 kts 277°
2026-04-20 13:45 50.65883 -1.20398 1012 ft 135 kts 250°
2026-04-20 13:45 50.65555 -1.21715 993 ft 123 kts 235°
2026-04-20 13:45 50.64928 -1.22400 987 ft 107 kts 177°
2026-04-20 13:46 50.64320 -1.21961 962 ft 93 kts 123°
2026-04-20 13:46 50.64171 -1.21055 897 ft 86 kts 86°
2026-04-20 13:46 50.64360 -1.20110 644 ft 96 kts 66°
2026-04-20 13:46 50.64697 -1.19190 418 ft 92 kts 62°
2026-04-20 13:47 50.65182 -1.18400 91 ft 102 kts 47°
2026-04-20 13:47 50.65679 -1.17647 197 ft 98 kts 49°
2026-04-20 13:47 50.66141 -1.16887 417 ft 95 kts 49°
2026-04-20 13:47 50.66702 -1.16337 710 ft 100 kts 15°
2026-04-20 13:48 50.67340 -1.16779 966 ft 112 kts 310°
2026-04-20 13:48 50.67441 -1.18111 896 ft 138 kts 248°
2026-04-20 13:48 50.66892 -1.19308 975 ft 131 kts 218°
2026-04-20 13:48 50.66194 -1.20202 959 ft 128 kts 214°
2026-04-20 13:49 50.65506 -1.21068 937 ft 126 kts 216°
2026-04-20 13:49 50.64863 -1.21935 897 ft 119 kts 213°
2026-04-20 13:49 50.64210 -1.22742 851 ft 119 kts 208°
2026-04-20 13:49 50.63529 -1.22849 858 ft 94 kts 147°
2026-04-20 13:50 50.63184 -1.22105 781 ft 78 kts 94°
2026-04-20 13:50 50.63372 -1.21307 638 ft 78 kts 62°
2026-04-20 13:50 50.63722 -1.20683 517 ft 74 kts 51°
2026-04-20 13:50 50.64077 -1.20100 402 ft 74 kts 50°
2026-04-20 13:51 50.64455 -1.19543 265 ft 72 kts 50°
2026-04-20 13:51 50.64825 -1.18984 157 ft 75 kts 53°
2026-04-20 13:51 50.65189 -1.18393 59 ft 70 kts 51°
2026-04-20 13:51 50.65440 -1.17990 57 ft 27 kts 44°
2026-04-20 13:52 50.65533 -1.17848 55 ft 21 kts 48°
2026-04-20 13:52 50.65568 -1.17868 55 ft 8 kts 224°
2026-04-20 13:52 50.65515 -1.17941 57 ft 13 kts 222°
2026-04-20 13:52 50.65460 -1.18025 55 ft 10 kts 226°
2026-04-20 13:53 50.65393 -1.18128 56 ft 14 kts 224°
2026-04-20 13:53 50.65337 -1.18218 59 ft 11 kts 225°
2026-04-20 13:53 50.65265 -1.18333 57 ft 17 kts 223°
2026-04-20 13:53 50.65200 -1.18442 57 ft 11 kts 224°
2026-04-20 13:54 50.65155 -1.18512 55 ft 8 kts 224°
2026-04-20 13:54 50.65117 -1.18567 52 ft 6 kts 221°
2026-04-20 13:54 50.65091 -1.18603 53 ft 4 kts 220°
2026-04-20 13:54 50.65070 -1.18630 54 ft 6 kts 219°
2026-04-20 13:55 50.65011 -1.18656 51 ft 12 kts 152°
2026-04-20 13:55 50.64983 -1.18573 54 ft 5 kts 91°
2026-04-20 13:55 50.64998 -1.18529 51 ft 0 kts 53°